Time,TemperatureF,DewpointF,PressureIn,WindDirection,WindDirectionDegrees,WindSpeedMPH,WindSpeedGustMPH,Humidity,HourlyPrecipIn,Conditions,Clouds,dailyrainin,SoftwareType,DateUTC
2013-03-06 00:02:00,35.1,31.6,29.85,East,90,1.0,12.0,87,0.00,,,0.00,meteohub,2013-03-06 05:02:00,
2013-03-06 00:12:00,34.0,32.2,29.84,SE,135,2.0,12.0,93,0.00,,,0.00,meteohub,2013-03-06 05:12:00,
2013-03-06 00:22:00,33.1,31.8,29.83,East,90,2.0,11.0,95,0.00,,,0.00,meteohub,2013-03-06 05:22:00,
2013-03-06 00:32:00,33.1,31.8,29.81,SE,135,2.0,9.0,95,0.00,,,0.00,meteohub,2013-03-06 05:32:00,
2013-03-06 00:42:00,32.0,30.7,29.81,SE,135,4.0,5.0,95,0.00,,,0.00,meteohub,2013-03-06 05:42:00,
2013-03-06 00:52:00,32.0,30.7,29.80,ESE,112,4.0,9.0,95,0.00,,,0.00,meteohub,2013-03-06 05:52:00,
2013-03-06 01:02:00,32.0,30.7,29.79,East,90,4.0,9.0,95,0.00,,,0.00,meteohub,2013-03-06 06:02:00,
2013-03-06 01:12:00,32.0,30.7,29.79,NE,45,2.0,9.0,95,0.00,,,0.00,meteohub,2013-03-06 06:12:00,
2013-03-06 01:22:00,32.0,30.7,29.77,SE,135,6.0,9.0,95,0.00,,,0.00,meteohub,2013-03-06 06:22:00,
2013-03-06 01:32:00,32.0,30.7,29.77,SE,135,2.0,9.0,95,0.00,,,0.00,meteohub,2013-03-06 06:32:00,
2013-03-06 01:42:00,32.0,30.7,29.76,ESE,112,1.0,11.0,95,0.00,,,0.00,meteohub,2013-03-06 06:42:00,
2013-03-06 01:52:00,32.0,30.7,29.75,NE,45,4.0,14.0,95,0.00,,,0.00,meteohub,2013-03-06 06:52:00,
2013-03-06 02:02:00,32.0,30.7,29.74,East,90,3.0,14.0,95,0.00,,,0.00,meteohub,2013-03-06 07:02:00,
2013-03-06 02:12:00,32.0,30.7,29.73,ESE,112,1.0,10.0,95,0.00,,,0.00,meteohub,2013-03-06 07:12:00,
2013-03-06 02:22:00,32.0,30.7,29.73,East,90,2.0,10.0,95,0.00,,,0.00,meteohub,2013-03-06 07:22:00,
2013-03-06 02:32:00,32.0,30.7,29.74,ESE,112,4.0,10.0,95,0.00,,,0.00,meteohub,2013-03-06 07:32:00,
2013-03-06 02:42:00,32.0,30.7,29.74,ESE,112,2.0,10.0,95,0.00,,,0.00,meteohub,2013-03-06 07:42:00,
2013-03-06 02:52:00,32.0,30.7,29.73,East,90,2.0,8.0,95,0.00,,,0.00,meteohub,2013-03-06 07:52:00,
2013-03-06 03:02:00,32.0,30.7,29.72,NE,45,5.0,9.0,95,0.00,,,0.00,meteohub,2013-03-06 08:02:00,
2013-03-06 03:12:00,32.0,30.7,29.70,NE,45,4.0,9.0,95,0.00,,,0.00,meteohub,2013-03-06 08:12:00,
2013-03-06 03:22:00,32.0,30.7,29.69,East,90,2.0,9.0,95,0.00,,,0.00,meteohub,2013-03-06 08:22:00,
2013-03-06 03:32:00,32.0,30.7,29.68,NE,45,6.0,9.0,95,0.00,,,0.00,meteohub,2013-03-06 08:32:00,
2013-03-06 03:42:00,32.0,30.7,29.67,East,90,3.0,11.0,95,0.00,,,0.00,meteohub,2013-03-06 08:42:00,
2013-03-06 03:52:00,32.0,30.7,29.67,NE,45,4.0,11.0,95,0.00,,,0.00,meteohub,2013-03-06 08:52:00,
2013-03-06 04:02:00,32.0,30.7,29.67,NE,45,1.0,11.0,95,0.00,,,0.00,meteohub,2013-03-06 09:02:00,
2013-03-06 04:12:00,32.0,30.7,29.67,East,90,2.0,9.0,95,0.00,,,0.00,meteohub,2013-03-06 09:12:00,
2013-03-06 04:22:00,32.0,30.7,29.67,NE,45,1.0,9.0,95,0.00,,,0.00,meteohub,2013-03-06 09:22:00,
2013-03-06 04:32:00,32.0,30.7,29.67,NE,45,3.0,9.0,95,0.00,,,0.00,meteohub,2013-03-06 09:32:00,
2013-03-06 04:42:00,32.0,30.7,29.66,East,90,4.0,9.0,95,0.00,,,0.00,meteohub,2013-03-06 09:42:00,
2013-03-06 04:52:00,32.0,30.7,29.66,NE,45,7.0,10.0,95,0.00,,,0.00,meteohub,2013-03-06 09:52:00,
2013-03-06 05:02:00,32.0,30.7,29.65,East,90,4.0,11.0,95,0.00,,,0.00,meteohub,2013-03-06 10:02:00,
2013-03-06 05:12:00,32.0,30.7,29.65,East,90,4.0,11.0,95,0.00,,,0.00,meteohub,2013-03-06 10:12:00,
2013-03-06 05:22:00,32.0,30.7,29.65,NE,45,2.0,9.0,95,0.00,,,0.00,meteohub,2013-03-06 10:22:00,
2013-03-06 05:32:00,32.0,30.7,29.65,NE,45,5.0,14.0,95,0.00,,,0.00,meteohub,2013-03-06 10:32:00,
2013-03-06 05:42:00,32.0,30.7,29.65,NE,45,4.0,11.0,95,0.00,,,0.00,meteohub,2013-03-06 10:42:00,
2013-03-06 05:52:00,32.0,30.7,29.65,NE,45,2.0,12.0,95,0.00,,,0.00,meteohub,2013-03-06 10:52:00,
2013-03-06 06:02:00,32.0,30.7,29.64,NE,45,4.0,9.0,95,0.00,,,0.00,meteohub,2013-03-06 11:02:00,
2013-03-06 06:12:00,32.0,30.7,29.63,SE,135,4.0,9.0,95,0.00,,,0.00,meteohub,2013-03-06 11:12:00,
2013-03-06 06:22:00,32.0,30.7,29.63,East,90,6.0,10.0,95,0.00,,,0.00,meteohub,2013-03-06 11:22:00,
2013-03-06 06:32:00,32.0,30.7,29.63,NE,45,2.0,14.0,95,0.00,,,0.00,meteohub,2013-03-06 11:32:00,
2013-03-06 06:42:00,32.0,30.7,29.63,East,90,4.0,11.0,95,0.00,,,0.00,meteohub,2013-03-06 11:42:00,
2013-03-06 06:52:00,33.1,31.8,29.63,NE,45,6.0,14.0,95,0.00,,,0.00,meteohub,2013-03-06 11:52:00,
2013-03-06 07:02:00,33.1,31.8,29.63,East,90,7.0,12.0,95,0.00,,,0.00,meteohub,2013-03-06 12:02:00,
2013-03-06 07:12:00,33.1,31.8,29.63,SE,135,2.0,13.0,95,0.00,,,0.00,meteohub,2013-03-06 12:12:00,
2013-03-06 07:22:00,33.1,31.8,29.63,ENE,67,5.0,11.0,95,0.00,,,0.00,meteohub,2013-03-06 12:22:00,
2013-03-06 07:32:00,33.1,31.8,29.64,NE,45,8.0,11.0,95,0.00,,,0.00,meteohub,2013-03-06 12:32:00,
2013-03-06 07:42:00,33.1,31.8,29.64,NE,45,6.0,12.0,95,0.00,,,0.00,meteohub,2013-03-06 12:42:00,
2013-03-06 07:52:00,33.1,31.8,29.64,East,90,4.0,17.0,95,0.00,,,0.00,meteohub,2013-03-06 12:52:00,
2013-03-06 08:02:00,33.1,31.8,29.65,NE,45,7.0,12.0,95,0.00,,,0.00,meteohub,2013-03-06 13:02:00,
2013-03-06 08:12:00,33.1,31.8,29.65,North,0,2.0,15.0,95,0.00,,,0.00,meteohub,2013-03-06 13:12:00,
2013-03-06 08:22:00,33.1,31.8,29.64,ENE,67,3.0,14.0,95,0.00,,,0.00,meteohub,2013-03-06 13:22:00,
2013-03-06 08:32:00,33.1,31.8,29.64,NE,45,13.0,14.0,95,0.00,,,0.00,meteohub,2013-03-06 13:32:00,
2013-03-06 08:42:00,32.0,30.7,29.64,SE,135,1.0,13.0,95,0.00,,,0.00,meteohub,2013-03-06 13:42:00,
2013-03-06 08:52:00,32.0,30.7,29.64,NE,45,2.0,16.0,95,0.00,,,0.00,meteohub,2013-03-06 13:52:00,
2013-03-06 09:02:00,32.0,30.7,29.64,North,0,2.0,13.0,95,0.00,,,0.00,meteohub,2013-03-06 14:02:00,
2013-03-06 09:12:00,32.0,30.7,29.64,North,0,2.0,12.0,95,0.00,,,0.00,meteohub,2013-03-06 14:12:00,
2013-03-06 09:22:00,32.0,30.7,29.65,NE,45,3.0,9.0,95,0.00,,,0.00,meteohub,2013-03-06 14:22:00,
2013-03-06 09:32:00,32.0,30.7,29.65,NE,45,2.0,12.0,95,0.00,,,0.00,meteohub,2013-03-06 14:32:00,
2013-03-06 09:42:00,32.0,30.7,29.65,NE,45,4.0,11.0,95,0.00,,,0.00,meteohub,2013-03-06 14:42:00,
2013-03-06 09:52:00,32.0,30.7,29.65,NW,315,2.0,9.0,95,0.00,,,0.00,meteohub,2013-03-06 14:52:00,
2013-03-06 10:02:00,32.0,30.7,29.65,North,0,3.0,7.0,95,0.00,,,0.00,meteohub,2013-03-06 15:02:00,
2013-03-06 10:12:00,32.0,30.7,29.65,North,0,6.0,7.0,95,0.00,,,0.00,meteohub,2013-03-06 15:12:00,
2013-03-06 10:22:00,32.0,30.7,29.65,NE,45,5.0,8.0,95,0.00,,,0.00,meteohub,2013-03-06 15:22:00,
2013-03-06 10:32:00,32.0,30.7,29.65,NE,45,2.0,9.0,95,0.00,,,0.00,meteohub,2013-03-06 15:32:00,
2013-03-06 10:42:00,32.0,30.7,29.65,NW,315,5.0,16.0,95,0.00,,,0.00,meteohub,2013-03-06 15:42:00,
2013-03-06 10:52:00,32.0,30.7,29.65,North,0,4.0,16.0,95,0.00,,,0.00,meteohub,2013-03-06 15:52:00,
2013-03-06 11:02:00,32.0,30.7,29.65,North,0,5.0,12.0,95,0.00,,,0.00,meteohub,2013-03-06 16:02:00,
2013-03-06 11:12:00,32.0,30.7,29.65,North,0,2.0,12.0,95,0.00,,,0.00,meteohub,2013-03-06 16:12:00,
2013-03-06 11:22:00,32.0,30.7,29.65,NW,315,4.0,12.0,95,0.00,,,0.00,meteohub,2013-03-06 16:22:00,
2013-03-06 11:32:00,32.0,30.7,29.65,North,0,6.0,14.0,95,0.02,,,0.02,meteohub,2013-03-06 16:32:00,
2013-03-06 11:42:00,33.1,31.8,29.65,NNE,22,2.0,15.0,95,0.04,,,0.04,meteohub,2013-03-06 16:42:00,
2013-03-06 11:52:00,33.1,31.8,29.66,North,0,5.0,16.0,95,0.05,,,0.05,meteohub,2013-03-06 16:52:00,
2013-03-06 12:02:00,33.1,31.8,29.66,NE,45,6.0,16.0,95,0.08,,,0.08,meteohub,2013-03-06 17:02:00,
2013-03-06 12:12:00,33.1,31.8,29.66,ENE,67,2.0,16.0,95,0.10,,,0.10,meteohub,2013-03-06 17:12:00,
2013-03-06 12:22:00,33.1,31.8,29.67,North,0,5.0,19.0,95,0.11,,,0.11,meteohub,2013-03-06 17:22:00,
2013-03-06 12:32:00,33.1,31.8,29.67,NW,315,7.0,20.0,95,0.12,,,0.14,meteohub,2013-03-06 17:32:00,
2013-03-06 12:42:00,33.1,31.8,29.67,North,0,18.0,18.0,95,0.11,,,0.15,meteohub,2013-03-06 17:42:00,
2013-03-06 12:52:00,33.1,31.8,29.67,North,0,16.0,22.0,95,0.10,,,0.16,meteohub,2013-03-06 17:52:00,
2013-03-06 13:02:00,33.1,31.8,29.67,North,0,7.0,20.0,95,0.10,,,0.18,meteohub,2013-03-06 18:02:00,
2013-03-06 13:12:00,33.1,31.8,29.68,NNE,22,5.0,21.0,95,0.11,,,0.21,meteohub,2013-03-06 18:12:00,
2013-03-06 13:22:00,33.1,31.8,29.69,NNE,22,7.0,18.0,95,0.11,,,0.23,meteohub,2013-03-06 18:22:00,
2013-03-06 13:32:00,33.1,31.8,29.69,NNW,337,5.0,18.0,95,0.11,,,0.24,meteohub,2013-03-06 18:32:00,
2013-03-06 13:42:00,34.0,32.7,29.69,NNW,337,9.0,21.0,95,0.11,,,0.26,meteohub,2013-03-06 18:42:00,
2013-03-06 13:52:00,34.0,32.7,29.70,North,0,4.0,24.0,95,0.11,,,0.28,meteohub,2013-03-06 18:52:00,
2013-03-06 14:02:00,34.0,32.7,29.71,North,0,5.0,24.0,95,0.11,,,0.29,meteohub,2013-03-06 19:02:00,
2013-03-06 14:12:00,34.0,32.7,29.71,NW,315,4.0,22.0,95,0.10,,,0.31,meteohub,2013-03-06 19:12:00,
2013-03-06 14:22:00,34.0,32.7,29.72,North,0,7.0,21.0,95,0.09,,,0.32,meteohub,2013-03-06 19:22:00,
2013-03-06 14:32:00,34.0,32.7,29.73,North,0,3.0,24.0,95,0.09,,,0.34,meteohub,2013-03-06 19:32:00,
2013-03-06 14:42:00,35.1,33.8,29.74,North,0,8.0,26.0,95,0.09,,,0.36,meteohub,2013-03-06 19:42:00,
2013-03-06 14:52:00,35.1,33.8,29.75,NW,315,10.0,22.0,95,0.09,,,0.37,meteohub,2013-03-06 19:52:00,
2013-03-06 15:02:00,35.1,33.8,29.77,NNW,337,7.0,19.0,95,0.10,,,0.39,meteohub,2013-03-06 20:02:00,
2013-03-06 15:12:00,35.1,33.8,29.77,North,0,13.0,23.0,95,0.10,,,0.41,meteohub,2013-03-06 20:12:00,
2013-03-06 15:22:00,35.1,33.8,29.79,North,0,7.0,23.0,95,0.12,,,0.44,meteohub,2013-03-06 20:22:00,
2013-03-06 15:32:00,35.1,33.8,29.79,NW,315,5.0,20.0,95,0.12,,,0.46,meteohub,2013-03-06 20:32:00,
2013-03-06 15:42:00,35.1,33.8,29.80,NNW,337,19.0,22.0,95,0.11,,,0.47,meteohub,2013-03-06 20:42:00,
2013-03-06 15:52:00,35.1,33.8,29.81,North,0,2.0,21.0,95,0.11,,,0.49,meteohub,2013-03-06 20:52:00,
2013-03-06 16:02:00,36.0,34.7,29.81,NW,315,5.0,22.0,95,0.11,,,0.50,meteohub,2013-03-06 21:02:00,
2013-03-06 16:12:00,36.0,34.7,29.82,North,0,4.0,26.0,95,0.11,,,0.52,meteohub,2013-03-06 21:12:00,
2013-03-06 16:22:00,36.0,34.7,29.83,North,0,7.0,26.0,95,0.10,,,0.54,meteohub,2013-03-06 21:22:00,
2013-03-06 16:32:00,36.0,34.7,29.85,SE,135,1.0,27.0,95,0.09,,,0.55,meteohub,2013-03-06 21:32:00,
2013-03-06 16:42:00,36.0,34.7,29.86,NW,315,11.0,27.0,95,0.10,,,0.57,meteohub,2013-03-06 21:42:00,
2013-03-06 16:52:00,36.0,34.7,29.87,NW,315,8.0,28.0,95,0.09,,,0.58,meteohub,2013-03-06 21:52:00,
2013-03-06 17:02:00,36.0,34.7,29.88,North,0,6.0,28.0,95,0.09,,,0.59,meteohub,2013-03-06 22:02:00,
2013-03-06 17:12:00,36.0,34.7,29.89,North,0,14.0,22.0,95,0.08,,,0.60,meteohub,2013-03-06 22:12:00,
2013-03-06 17:22:00,36.0,34.7,29.89,NW,315,7.0,21.0,95,0.07,,,0.61,meteohub,2013-03-06 22:22:00,
2013-03-06 17:32:00,36.0,34.7,29.89,North,0,7.0,17.0,95,0.07,,,0.62,meteohub,2013-03-06 22:32:00,
2013-03-06 17:42:00,36.0,34.7,29.91,North,0,5.0,17.0,95,0.05,,,0.62,meteohub,2013-03-06 22:42:00,
2013-03-06 17:52:00,36.0,34.7,29.92,North,0,7.0,17.0,95,0.04,,,0.63,meteohub,2013-03-06 22:52:00,
2013-03-06 18:02:00,36.0,34.7,29.93,NW,315,9.0,17.0,95,0.04,,,0.64,meteohub,2013-03-06 23:02:00,
2013-03-06 18:12:00,36.0,34.7,29.94,NW,315,7.0,16.0,95,0.04,,,0.64,meteohub,2013-03-06 23:12:00,
2013-03-06 18:22:00,36.0,34.7,29.94,WNW,292,11.0,16.0,95,0.04,,,0.65,meteohub,2013-03-06 23:22:00,
2013-03-06 18:32:00,36.0,34.7,29.95,North,0,2.0,19.0,95,0.03,,,0.65,meteohub,2013-03-06 23:32:00,
2013-03-06 18:42:00,36.0,34.7,29.95,North,0,6.0,15.0,95,0.02,,,0.65,meteohub,2013-03-06 23:42:00,
2013-03-06 18:52:00,36.0,34.7,29.97,NE,45,6.0,14.0,95,0.02,,,0.65,meteohub,2013-03-06 23:52:00,
2013-03-06 19:02:00,36.0,34.7,29.97,North,0,9.0,16.0,95,0.02,,,0.66,meteohub,2013-03-07 00:02:00,
2013-03-06 19:22:00,37.0,35.8,29.97,West,270,2.0,19.0,95,0.02,,,0.67,meteohub,2013-03-07 00:22:00,
2013-03-06 19:32:00,37.0,35.8,29.98,NW,315,3.0,17.0,95,0.02,,,0.67,meteohub,2013-03-07 00:32:00,
2013-03-06 19:42:00,37.0,35.8,29.98,North,0,6.0,21.0,95,0.02,,,0.67,meteohub,2013-03-07 00:42:00,
2013-03-06 19:52:00,37.0,35.8,29.98,NW,315,6.0,21.0,95,0.01,,,0.67,meteohub,2013-03-07 00:52:00,
2013-03-06 20:02:00,37.0,35.8,29.98,NW,315,4.0,16.0,95,0.02,,,0.68,meteohub,2013-03-07 01:02:00,
2013-03-06 20:12:00,37.0,35.8,29.99,NW,315,9.0,12.0,95,0.02,,,0.68,meteohub,2013-03-07 01:12:00,
2013-03-06 20:22:00,37.0,35.8,29.99,North,0,4.0,12.0,95,0.01,,,0.68,meteohub,2013-03-07 01:22:00,
2013-03-06 20:32:00,37.0,35.8,29.99,NW,315,4.0,11.0,95,0.01,,,0.68,meteohub,2013-03-07 01:32:00,
2013-03-06 20:42:00,37.0,35.8,29.99,North,0,4.0,14.0,95,0.01,,,0.68,meteohub,2013-03-07 01:42:00,
2013-03-06 20:52:00,37.0,35.8,29.99,North,0,3.0,14.0,95,0.01,,,0.68,meteohub,2013-03-07 01:52:00,
2013-03-06 21:02:00,37.0,35.4,29.99,North,0,6.0,10.0,94,0.00,,,0.68,meteohub,2013-03-07 02:02:00,
2013-03-06 21:12:00,37.0,35.2,29.99,NW,315,2.0,14.0,93,0.00,,,0.68,meteohub,2013-03-07 02:12:00,
2013-03-06 21:22:00,37.0,35.2,29.99,North,0,2.0,10.0,93,0.00,,,0.68,meteohub,2013-03-07 02:22:00,
2013-03-06 21:32:00,37.0,35.4,29.99,NNW,337,2.0,9.0,94,0.00,,,0.68,meteohub,2013-03-07 02:32:00,
2013-03-06 21:42:00,37.0,35.4,29.99,NNW,337,12.0,12.0,94,0.00,,,0.68,meteohub,2013-03-07 02:42:00,
2013-03-06 21:52:00,37.0,35.2,29.99,NW,315,6.0,12.0,93,0.00,,,0.68,meteohub,2013-03-07 02:52:00,
2013-03-06 22:02:00,37.0,35.2,30.00,NW,315,7.0,11.0,93,0.00,,,0.68,meteohub,2013-03-07 03:02:00,
2013-03-06 22:12:00,37.0,35.2,30.00,North,0,4.0,10.0,93,0.00,,,0.68,meteohub,2013-03-07 03:12:00,
2013-03-06 22:22:00,37.0,34.9,30.00,NW,315,8.0,12.0,92,0.00,,,0.68,meteohub,2013-03-07 03:22:00,
2013-03-06 22:32:00,37.0,34.7,30.01,North,0,5.0,12.0,91,0.00,,,0.68,meteohub,2013-03-07 03:32:00,
2013-03-06 22:42:00,37.0,34.3,30.01,NW,315,6.0,12.0,90,0.00,,,0.68,meteohub,2013-03-07 03:42:00,
2013-03-06 22:52:00,37.0,34.2,30.02,NW,315,6.0,14.0,89,0.00,,,0.68,meteohub,2013-03-07 03:52:00,
2013-03-06 23:02:00,37.0,34.2,30.02,NW,315,7.0,14.0,89,0.00,,,0.68,meteohub,2013-03-07 04:02:00,
2013-03-06 23:12:00,37.0,34.2,30.03,NW,315,6.0,11.0,89,0.00,,,0.68,meteohub,2013-03-07 04:12:00,
2013-03-06 23:22:00,37.0,33.8,30.03,NW,315,4.0,11.0,88,0.00,,,0.68,meteohub,2013-03-07 04:22:00,
2013-03-06 23:32:00,37.0,32.9,30.03,NW,315,4.0,9.0,85,0.00,,,0.68,meteohub,2013-03-07 04:32:00,
2013-03-06 23:42:00,37.0,32.9,30.03,East,90,2.0,9.0,85,0.00,,,0.68,meteohub,2013-03-07 04:42:00,
2013-03-06 23:52:00,37.0,32.9,30.03,NW,315,4.0,9.0,85,0.00,,,0.68,meteohub,2013-03-07 04:52:00,